| time (UTC) | temp F | wind direction | speed knots | gust knots | rain 1hr in | rain 24hr in | rain mn in | humidity % | barometer mb |
| 20260831224506 | 68 | 117 | 0.0 | 0.0 | 0.00 | 0.00 | 0.00 | 75 | 1025.7 |
| 20260831223006 | 69 | 117 | 0.0 | 0.0 | 0.00 | 0.00 | 0.00 | 73 | 1025.7 |
| 20260831221509 | 69 | 116 | 0.0 | 0.9 | 0.00 | 0.00 | 0.00 | 71 | 1025.7 |
| 20260831220005 | 69 | 167 | 0.0 | 0.0 | 0.00 | 0.00 | 0.00 | 71 | 1025.7 |
| 20260831214512 | 69 | 156 | 0.0 | 4.3 | 0.00 | 0.00 | 0.00 | 72 | 1025.7 |
| 20260831213003 | 70 | 271 | 0.0 | 3.5 | 0.00 | 0.00 | 0.00 | 72 | 1025.7 |
| 20260831211503 | 71 | 125 | 0.0 | 0.0 | 0.00 | 0.00 | 0.00 | 72 | 1025.7 |
| 20260831210003 | 71 | 125 | 0.0 | 3.5 | 0.00 | 0.00 | 0.00 | 71 | 1025.7 |
| 20260831204501 | 72 | 272 | 0.0 | 3.5 | 0.00 | 0.00 | 0.00 | 69 | 1025.7 |
| 20260831203001 | 73 | 135 | 0.0 | 3.5 | 0.00 | 0.00 | 0.00 | 68 | 1025.7 |
| 20260831201503 | 73 | 141 | 0.0 | 5.2 | 0.00 | 0.00 | 0.00 | 67 | 1025.7 |
| 20260831200105 | 74 | 148 | 0.0 | 0.9 | 0.00 | 0.00 | 0.00 | 65 | 1025.7 |
| 20260831194559 | 74 | 158 | 0.0 | 0.9 | 0.00 | 0.00 | 0.00 | 67 | 1025.7 |
| 20260831193058 | 74 | 150 | 0.0 | 4.3 | 0.00 | 0.00 | 0.00 | 68 | 1025.7 |
| 20260831191556 | 74 | 294 | 0.0 | 7.0 | 0.00 | 0.00 | 0.00 | 68 | 1025.7 |
| 20260831190112 | 74 | 273 | 0.0 | 3.5 | 0.00 | 0.00 | 0.00 | 67 | 1025.7 |
| 20260831184555 | 74 | 281 | 0.0 | 0.0 | 0.00 | 0.00 | 0.00 | 69 | 1025.7 |
| 20260831183100 | 74 | 289 | 0.0 | 0.0 | 0.00 | 0.00 | 0.00 | 68 | 1025.7 |
| 20260831181553 | 74 | 142 | 0.0 | 1.7 | 0.00 | 0.00 | 0.00 | 67 | 1025.7 |
| 20260831180050 | 75 | 297 | 0.0 | 0.0 | 0.00 | 0.00 | 0.00 | 64 | 1025.7 |
| 20260831174549 | 76 | 298 | 0.0 | 5.2 | 0.00 | 0.00 | 0.00 | 64 | 1025.7 |
| 20260831173048 | 77 | 271 | 0.0 | 1.7 | 0.00 | 0.00 | 0.00 | 63 | 1025.7 |
| 20260831171547 | 79 | 232 | 0.0 | 4.3 | 0.00 | 0.00 | 0.00 | 59 | 1025.7 |
| 20260831170043 | 78 | 256 | 0.0 | 1.7 | 0.00 | 0.00 | 0.00 | 55 | 1025.7 |
| 20260831164549 | 78 | 181 | 0.0 | 0.0 | 0.00 | 0.00 | 0.00 | 54 | 1025.7 |
| 20260831163044 | 77 | 216 | 0.0 | 0.0 | 0.00 | 0.00 | 0.00 | 56 | 1025.7 |
| 20260831161542 | 77 | 180 | 0.0 | 4.3 | 0.00 | 0.00 | 0.00 | 56 | 1025.7 |
| 20260831160045 | 77 | 312 | 0.0 | 0.0 | 0.00 | 0.00 | 0.00 | 54 | 1025.7 |
| 20260831154542 | 77 | 26 | 0.0 | 3.5 | 0.00 | 0.00 | 0.00 | 57 | 1025.7 |
| 20260831153036 | 77 | 261 | 0.0 | 0.0 | 0.00 | 0.00 | 0.00 | 58 | 1025.7 |
| 20260831151537 | 76 | 261 | 0.0 | 0.0 | 0.00 | 0.00 | 0.00 | 54 | 1025.7 |
| 20260831150030 | 75 | 261 | 0.0 | 0.9 | 0.00 | 0.00 | 0.00 | 60 | 1025.7 |
| 20260831144526 | 74 | 265 | 0.0 | 3.5 | 0.00 | 0.00 | 0.00 | 59 | 1025.7 |
| 20260831143027 | 73 | 224 | 0.0 | 3.5 | 0.00 | 0.00 | 0.00 | 57 | 1025.7 |
| 20260831141521 | 72 | 141 | 0.0 | 0.9 | 0.00 | 0.00 | 0.00 | 65 | 1025.7 |
| 20260831140025 | 70 | 139 | 0.0 | 0.0 | 0.00 | 0.00 | 0.00 | 70 | 1025.7 |
| 20260831134508 | 68 | 139 | 0.0 | 0.0 | 0.00 | 0.00 | 0.00 | 71 | 1025.7 |
| 20260831133004 | 66 | 141 | 0.0 | 0.0 | 0.00 | 0.00 | 0.00 | 74 | 1025.7 |
| 20260831131503 | 65 | 139 | 0.0 | 0.0 | 0.00 | 0.00 | 0.00 | 81 | 1025.7 |
| 20260831130002 | 63 | 139 | 0.0 | 0.0 | 0.00 | 0.00 | 0.00 | 84 | 1025.7 |
| 20260831124604 | 62 | 139 | 0.0 | 0.0 | 0.00 | 0.00 | 0.00 | 89 | 1025.7 |
| 20260831123100 | 61 | 139 | 0.0 | 0.0 | 0.00 | 0.00 | 0.00 | 91 | 1025.7 |
| 20260831121558 | 61 | 139 | 0.0 | 1.7 | 0.00 | 0.00 | 0.00 | 93 | 1025.7 |
| 20260831120059 | 60 | 137 | 0.0 | 0.0 | 0.00 | 0.00 | 0.00 | 94 | 1025.7 |
| 20260831114555 | 59 | 137 | 0.0 | 0.0 | 0.00 | 0.00 | 0.00 | 93 | 1025.7 |
| 20260831113111 | 59 | 137 | 0.0 | 0.0 | 0.00 | 0.00 | 0.00 | 93 | 1025.7 |
| 20260831111552 | 59 | 137 | 0.0 | 0.0 | 0.00 | 0.00 | 0.00 | 93 | 1025.7 |
| 20260831110052 | 59 | 137 | 0.0 | 0.0 | 0.00 | 0.00 | 0.00 | 93 | 1025.7 |
| 20260831104550 | 59 | 137 | 0.0 | 0.0 | 0.00 | 0.00 | 0.00 | 93 | 1025.7 |
| 20260831103052 | 59 | 137 | 0.0 | 0.0 | 0.00 | 0.00 | 0.00 | 92 | 1025.7 |
| 20260831101550 | 59 | 137 | 0.0 | 0.0 | 0.00 | 0.00 | 0.00 | 92 | 1025.7 |
| 20260831100046 | 60 | 137 | 0.0 | 0.0 | 0.00 | 0.00 | 0.00 | 92 | 1025.7 |
| 20260831094555 | 60 | 137 | 0.0 | 0.0 | 0.00 | 0.00 | 0.00 | 92 | 1025.7 |
| 20260831093043 | 60 | 137 | 0.0 | 0.0 | 0.00 | 0.00 | 0.00 | 92 | 1025.7 |
| 20260831091547 | 61 | 137 | 0.0 | 0.0 | 0.00 | 0.00 | 0.00 | 92 | 1025.7 |
| 20260831090044 | 61 | 137 | 0.0 | 0.0 | 0.00 | 0.00 | 0.00 | 92 | 1025.7 |
| 20260831084537 | 61 | 137 | 0.0 | 0.0 | 0.00 | 0.00 | 0.00 | 91 | 1025.7 |
| 20260831083036 | 62 | 137 | 0.0 | 0.0 | 0.00 | 0.00 | 0.00 | 91 | 1025.7 |
| 20260831081534 | 62 | 137 | 0.0 | 0.0 | 0.00 | 0.00 | 0.00 | 91 | 1025.7 |
| 20260831080039 | 63 | 137 | 0.0 | 0.0 | 0.00 | 0.00 | 0.00 | 90 | 1025.7 |
| 20260831074529 | 63 | 137 | 0.0 | 0.0 | 0.00 | 0.00 | 0.00 | 90 | 1025.7 |
| 20260831073028 | 64 | 137 | 0.0 | 0.0 | 0.00 | 0.00 | 0.00 | 90 | 1025.7 |
| 20260831071527 | 64 | 137 | 0.0 | 0.0 | 0.00 | 0.00 | 0.00 | 89 | 1025.7 |
| 20260831070026 | 65 | 137 | 0.0 | 0.0 | 0.00 | 0.00 | 0.00 | 88 | 1025.7 |
| 20260831064521 | 65 | 137 | 0.0 | 0.0 | 0.00 | 0.00 | 0.00 | 88 | 1025.7 |
| 20260831063018 | 66 | 137 | 0.0 | 0.0 | 0.00 | 0.00 | 0.00 | 87 | 1025.7 |
| 20260831061516 | 67 | 137 | 0.0 | 0.0 | 0.00 | 0.00 | 0.00 | 86 | 1025.7 |
| 20260831060013 | 68 | 137 | 0.0 | 0.0 | 0.00 | 0.00 | 0.00 | 86 | 1025.7 |
| 20260831054512 | 68 | 137 | 0.0 | 0.0 | 0.00 | 0.00 | 0.00 | 85 | 1025.7 |
| 20260831053023 | 69 | 137 | 0.0 | 0.0 | 0.00 | 0.00 | 0.00 | 85 | 1025.7 |
| 20260831051509 | 69 | 137 | 0.0 | 0.0 | 0.00 | 0.00 | 0.00 | 85 | 1025.7 |
| 20260831050022 | 69 | 137 | 0.0 | 0.0 | 0.00 | 0.00 | 0.00 | 85 | 1025.7 |
| 20260831044505 | 70 | 137 | 0.0 | 0.0 | 0.00 | 0.00 | 0.00 | 85 | 1025.7 |
| 20260831043006 | 70 | 137 | 0.0 | 0.0 | 0.00 | 0.00 | 0.00 | 84 | 1025.7 |
| 20260831041502 | 71 | 137 | 0.0 | 0.0 | 0.00 | 0.00 | 0.00 | 84 | 1025.7 |
| 20260831040002 | 71 | 137 | 0.0 | 0.0 | 0.00 | 0.00 | 0.00 | 84 | 1025.7 |
| 20260831034559 | 71 | 137 | 0.0 | 0.0 | 0.00 | 0.00 | 0.00 | 85 | 1025.7 |
| 20260831033103 | 71 | 137 | 0.0 | 0.0 | 0.00 | 0.00 | 0.00 | 85 | 1025.7 |
| 20260831031559 | 71 | 137 | 0.0 | 0.0 | 0.00 | 0.00 | 0.00 | 87 | 1025.7 |
| 20260831030058 | 70 | 137 | 0.0 | 0.0 | 0.00 | 0.00 | 0.00 | 86 | 1025.7 |
| 20260831024601 | 71 | 137 | 0.0 | 0.0 | 0.00 | 0.00 | 0.00 | 86 | 1025.7 |
| 20260831023057 | 71 | 137 | 0.0 | 0.0 | 0.00 | 0.00 | 0.00 | 86 | 1025.7 |
| 20260831021557 | 71 | 137 | 0.0 | 0.0 | 0.00 | 0.00 | 0.00 | 85 | 1025.7 |
| 20260831020057 | 71 | 137 | 0.0 | 0.0 | 0.00 | 0.00 | 0.00 | 84 | 1025.7 |
| 20260831014555 | 72 | 137 | 0.0 | 0.0 | 0.00 | 0.00 | 0.00 | 83 | 1025.7 |
| 20260831013108 | 73 | 137 | 0.0 | 0.0 | 0.00 | 0.00 | 0.00 | 80 | 1025.7 |
| 20260831011557 | 73 | 137 | 0.0 | 0.0 | 0.00 | 0.00 | 0.00 | 77 | 1025.7 |
| 20260831010056 | 73 | 137 | 0.0 | 0.0 | 0.00 | 0.00 | 0.00 | 77 | 1025.7 |
| 20260831004553 | 73 | 137 | 0.0 | 0.0 | 0.00 | 0.00 | 0.00 | 76 | 1025.7 |
| 20260831003103 | 73 | 137 | 0.0 | 0.0 | 0.00 | 0.00 | 0.00 | 76 | 1025.7 |
| 20260831001552 | 73 | 137 | 0.0 | 0.0 | 0.00 | 0.00 | 0.00 | 74 | 1025.7 |
| 20260831000052 | 73 | 137 | 0.0 | 0.0 | 0.00 | 0.00 | 0.00 | 74 | 1025.7 |
| 20260830234554 | 74 | 137 | 0.0 | 0.0 | 0.00 | 0.00 | 0.00 | 71 | 1025.7 |
| 20260830233053 | 74 | 137 | 0.0 | 0.0 | 0.00 | 0.00 | 0.00 | 70 | 1025.7 |
| 20260830231550 | 75 | 137 | 0.0 | 0.0 | 0.00 | 0.00 | 0.00 | 70 | 1025.7 |
| 20260830230051 | 75 | 137 | 0.0 | 0.0 | 0.00 | 0.00 | 0.00 | 69 | 1025.7 |